#timestamp,LO_Frequency,Hit,StdDev 
1584946955.1,286046989.1,P
1584946975.9,286046989.3,P
1584946995.7,286046988.8,P
1584947015.6,286046989.5,Y
1584947035.4,286046998.7,P
1584947055.2,286047000.7,N
1584947075.1,286047002.4,N
1584947076.0,286047002.4,N
1584947095.8,286047000.3,N
1584947115.7,286047001.2,N
1584947135.5,286047000.9,N
1584947155.3,286046999.4,N
1584947175.2,286046999.5,N
1584947195.9,286046999.5,N
1584947215.7,286046999.6,N
1584947235.6,286046996.6,N
1584947255.4,286046997.3,N
1584947275.3,286046997.2,N
1584947295.1,286046997.2,N
1584947296.0,286046997.2,N
1584947315.8,286046997.2,N
1584947335.7,286046997.5,N
1584947355.5,286046995.1,N
1584947375.3,286046995.2,N
1584947395.2,286046995.1,N
1584947415.0,286046996.2,N
1584947415.9,286046996.2,N
1584947435.8,286046993.6,N
1584947455.6,286046993.5,N
1584947475.4,286046993.7,N
1584947495.3,286046993.9,N
1584947515.1,286046994.1,N
1584947535.8,286046992.1,N
1584947555.7,286046992.3,N
1584947575.5,286046992.5,N
1584947595.4,286046992.4,N
1584947615.2,286046994.8,N
1584947635.0,286046994.3,N
1584947635.9,286046994.3,N
1584947655.8,286046992.9,N
1584947675.6,286046993.0,N
1584947695.5,286046992.7,Y
1584947715.3,286046995.2,P
1584947735.1,286046997.5,P
1584947755.9,286046995.6,P
1584947775.7,286046996.1,Y
1584947795.5,286046998.4,P
1584947815.4,286046999.1,N
1584947835.2,286046999.2,N
1584947855.1,286046999.5,N
1584947856.0,286046999.5,N
1584947875.8,286046997.4,N
1584947895.6,286046997.3,N
1584947915.5,286046997.7,N
1584947935.3,286046997.3,N
1584947955.1,286046997.4,N
1584947975.9,286046995.1,Y
1584947995.7,286046996.7,P
1584948015.6,286046997.2,P
1584948035.4,286046996.7,P
1584948055.2,286046997.4,Y
1584948075.1,286047000.8,P
1584948076.0,286047000.8,N
1584948095.8,286046998.5,N
1584948115.6,286046998.7,N
1584948135.5,286046998.6,N
1584948155.3,286046999.1,N
1584948175.2,286046999.3,N
1584948195.9,286046996.5,Y
1584948215.7,286046998.9,P
1584948235.6,286046997.8,P
1584948255.4,286046995.1,P
1584948275.3,286046995.4,N
1584948295.1,286046995.8,N
1584948296.0,286046995.8,N
1584948315.8,286046995.7,N
1584948335.7,286046996.1,N
1584948355.5,286046993.5,Y
1584948375.3,286046997.8,P
1584948395.2,286046995.3,P
1584948415.0,286046995.0,P
1584948415.9,286046995.0,Y
1584948435.8,286047000.7,P
1584948455.6,286047001.2,N
1584948475.4,286046998.4,N
1584948495.3,286046997.2,N
1584948515.1,286046994.9,N
1584948535.9,286046995.3,N
1584948555.7,286046995.8,N
1584948575.5,286046995.7,N
1584948595.4,286046995.9,N
1584948615.2,286046996.4,N
1584948635.0,286046994.7,N
1584948635.9,286046994.7,N
1584948655.8,286046990.4,Y
1584948675.6,286046993.9,P
1584948695.5,286046994.2,P
1584948715.3,286046992.9,P
1584948735.1,286046992.9,Y
1584948755.9,286046995.3,P
1584948775.7,286046995.2,P
1584948795.5,286046996.1,P
1584948815.4,286046996.4,Y
1584948835.2,286046998.3,P
1584948855.1,286046996.8,N
1584948856.0,286046996.8,N
1584948875.8,286046995.0,Y
1584948895.6,286046998.5,P
1584948915.5,286046996.9,P
1584948935.3,286046994.9,P
1584948955.2,286046996.4,N
1584948975.9,286046995.2,Y
1584948995.7,286046998.8,P
1584949015.6,286046999.3,N
1584949035.4,286046996.5,P
1584949055.2,286046999.2,N
1584949075.1,286046996.9,N
1584949076.0,286046996.9,N
1584949095.8,286046993.3,Y
1584949115.7,286046995.4,P
1584949135.5,286046995.9,P
1584949155.3,286046996.1,P
1584949175.2,286046993.9,Y
1584949195.0,286046996.7,P
1584949195.9,286046996.7,P
1584949215.8,286046994.9,P
1584949235.6,286046995.0,Y
1584949255.4,286046999.0,P
1584949275.3,286046997.4,N
1584949295.1,286046997.3,N
1584949315.8,286046997.8,N
1584949335.7,286046995.9,Y
1584949355.5,286046995.5,P
1584949375.4,286046993.8,P
1584949395.2,286046993.8,P
1584949415.0,286046993.9,Y
1584949415.9,286046993.9,P
1584949435.8,286046998.3,N
1584949455.6,286046998.9,N
1584949475.4,286046999.5,N
1584949495.3,286046996.9,N
1584949515.1,286046997.7,N
1584949535.9,286046995.1,N
1584949555.7,286046995.2,N
1584949575.5,286046996.0,N
1584949595.4,286046994.2,Y
1584949615.2,286046995.7,P
1584949635.0,286046993.3,P
1584949636.0,286046993.3,P
1584949655.8,286046996.4,N
1584949675